User: anonymous   Login
Location: Dover
(39.1580°N, 75.5250°W)
Time: 12:32:11
(UTC-05:00)
Language:

Cosmos 1437 Rocket - Orbit

View from above orbital plane
View from above orbital plane
View from above satellite
View from above satellite

Ground track
Ground track

The orbit data is extracted from the following two-line orbital elements,

1 13771U 83003B   15063.76739390  .00003876  00000-0  24982-3 0  9994
2 13771 081.1516 245.2510 0028465 252.0456 107.7665 15.07774189747796
Epoch (UTC): 04 March 2015 18:25:02
Eccentricity: 0.0028465
inclination: 81.1516°
perigee height: 523 km
apogee height: 563 km
right ascension of ascending node: 245.2510°
argument of perigee: 252.0456°
revolutions per day: 15.07774189
mean anomaly at epoch: 107.7665°
orbit number at epoch: 74779

The dashed part of the orbit path shows where the satellite is in the earth's shadow,  

DLR